El Paso, TX

3:09 PM MDT on March 24, 2017 (GMT -0600)
El Paso International

Weather History for KELP - April, 2014

Change the Weather History Date:

Saturday, April 26, 2014

  Actual Average Record
Temperature  
Mean Temperature 71 °F 68 °F  
Max Temperature 84 °F 82 °F 95 °F (2012)
Min Temperature 57 °F 54 °F 38 °F (1997)
Degree Days  
Heating Degree Days 0 2  
Month to date heating degree days 49 88  
Since 1 July heating degree days 2014 2461  
Cooling Degree Days 6 4  
Month to date cooling degree days 96 62  
Year to date cooling degree days 121 72  
Growing Degree Days 22 (Base 50)    
Moisture  
Dew Point 18 °F    
Average Humidity 22    
Maximum Humidity 37    
Minimum Humidity 6    
Precipitation  
Precipitation 0.00 in 0.01 in 0.86 in (1941)
Month to date precipitation 0.45 0.20  
Year to date precipitation 0.63 1.32  
Snow  
Snow 0.00 in - - ()
Month to date snowfall 0.0  
Since 1 July snowfall T  
Snow Depth 0.00 in    
Sea Level Pressure  
Sea Level Pressure 29.57 in    
Wind  
Wind Speed 23 mph (WSW)    
Max Wind Speed 45 mph    
Max Gust Speed 55 mph    
Visibility 7 miles    
Events      
T = Trace of Precipitation, MM = Missing Value Source: NWS Daily Summary

Daily Weather History Graph

Daily Weather History Graph

Search for Another Location

Airport or City:

Trip Planner

Search our weather history database for the weather conditions in past years. The results will help you decide how hot, cold, wet, or windy it might be!

Date:

Astronomy

Apr. 26, 2014 Rise Set
Actual Time 6:24 AM MDT 7:42 PM MDT
Civil Twilight 5:59 AM MDT 8:07 PM MDT
Nautical Twilight 5:28 AM MDT 8:38 PM MDT
Astronomical Twilight 4:57 AM MDT 9:10 PM MDT
Moon 4:39 AM MDT (4/26) 5:22 PM MDT (4/26)
Length of Visible Light 14h 08m
Length of Day
13h 17m
Waning Crescent, 8% of the Moon is Illuminated
Apr 26
Waning Crescent
Apr 29
New
May 6
First Quarter
May 14
Full
May 21
Last Quarter

Hourly Weather History & Observations

Time (MDT) Temp. Dew Point Humidity Pressure Visibility Wind Dir Wind Speed Gust Speed Precip Events Conditions
12:51 AM 75.0 °F 17.1 °F 11% 29.62 in 10.0 mi WSW 20.7 mph 31.1 mph N/A   Mostly Cloudy
1:51 AM 73.9 °F 17.1 °F 12% 29.60 in 10.0 mi WSW 16.1 mph 26.5 mph N/A   Mostly Cloudy
2:51 AM 71.1 °F 18.0 °F 13% 29.60 in 10.0 mi SW 15.0 mph - N/A   Mostly Cloudy
3:51 AM 69.1 °F 19.0 °F 15% 29.59 in 10.0 mi SW 12.7 mph - N/A   Mostly Cloudy
4:51 AM 68.0 °F 19.0 °F 15% 29.58 in 10.0 mi SW 11.5 mph - N/A   Mostly Cloudy
5:51 AM 66.9 °F 19.9 °F 17% 29.58 in 10.0 mi SW 6.9 mph - N/A   Overcast
6:51 AM 68.0 °F 19.9 °F 16% 29.60 in 10.0 mi WSW 12.7 mph - N/A   Overcast
7:51 AM 69.1 °F 21.9 °F 17% 29.61 in 10.0 mi SW 10.4 mph - N/A   Mostly Cloudy
8:51 AM 71.1 °F 21.0 °F 15% 29.62 in 10.0 mi SW 17.3 mph - N/A   Mostly Cloudy
9:51 AM 75.2 °F 19.4 °F 12% 29.81 in 10.0 mi SW 19.6 mph - N/A   Mostly Cloudy
10:51 AM 78.1 °F 15.1 °F 9% 29.59 in 10.0 mi SW 20.7 mph - N/A   Mostly Cloudy
11:51 AM 81.0 °F 14.0 °F 8% 29.57 in 10.0 mi SW 18.4 mph 27.6 mph N/A   Mostly Cloudy
12:51 PM 81.0 °F 12.9 °F 8% 29.55 in 10.0 mi SW 18.4 mph 40.3 mph N/A   Mostly Cloudy
1:51 PM 82.9 °F 12.0 °F 7% 29.50 in 10.0 mi SW 27.6 mph 38.0 mph N/A   Scattered Clouds
2:51 PM 82.4 °F 12.2 °F 7% 29.68 in 10.0 mi SW 17.3 mph 32.2 mph N/A   Mostly Cloudy
3:15 PM 82.9 °F 14.0 °F 8% 29.66 in 2.5 mi WSW 29.9 mph 38.0 mph N/A   Widespread Dust
3:51 PM 82.9 °F 12.0 °F 7% 29.43 in 2.5 mi WSW 25.3 mph 42.6 mph N/A   Widespread Dust
4:51 PM 82.0 °F 10.9 °F 7% 29.41 in 2.0 mi WSW 39.1 mph 46.0 mph N/A   Widespread Dust
5:07 PM 81.0 °F 12.0 °F 7% 29.61 in 1.2 mi WSW 31.1 mph 49.5 mph N/A   Widespread Dust
5:51 PM 79.0 °F 12.9 °F 8% 29.42 in 1.0 mi WSW 38.0 mph 49.5 mph N/A   Widespread Dust
6:51 PM 78.1 °F 14.0 °F 9% 29.42 in 1.0 mi WSW 35.7 mph 48.3 mph N/A   Widespread Dust
7:03 PM 78.1 °F 15.1 °F 9% 29.61 in 0.8 mi WSW 43.7 mph 55.2 mph N/A   Widespread Dust
7:43 PM 75.9 °F 18.0 °F 11% 29.63 in 1.0 mi West 38.0 mph 50.6 mph N/A   Widespread Dust
7:51 PM 75.9 °F 18.0 °F 11% 29.43 in 1.5 mi West 42.6 mph 54.1 mph N/A   Widespread Dust
8:16 PM 75.0 °F 19.0 °F 12% 29.64 in 2.5 mi West 41.4 mph 51.8 mph N/A   Widespread Dust
8:51 PM 73.9 °F 21.0 °F 14% 29.47 in 3.0 mi West 35.7 mph 47.2 mph N/A   Widespread Dust
9:51 PM 63.0 °F 34.0 °F 34% 29.56 in 10.0 mi WNW 27.6 mph 36.8 mph N/A   Scattered Clouds
10:51 PM 60.8 °F 33.8 °F 36% 29.75 in 10.0 mi WNW 25.3 mph 36.8 mph N/A   Partly Cloudy
11:51 PM 59.0 °F 33.1 °F 38% 29.59 in 10.0 mi West 24.2 mph 34.5 mph N/A   Clear